Location: Allos
(44.2333°N, 6.6333°E)
Time: 21:38:59
(UTC+00:00)

SAR-Lupe-4 - Pass Details

Date: 22 April 2021
Orbit: 483 x 483 km, 98.2° (Epoch: 13 April)

Event Time Altitude Azimuth Distance (km) Brightness Sun altitude
Rises 19:13:31 0° 7° (N) 2,560 7.5 -8.6°
Reaches altitude 10° 19:15:38 10° 2° (N) 1,674 6.6 -8.9°
Maximum altitude 19:19:06 47° 288° (WNW) 648 4.7 -9.5°
Drops below altitude 10° 19:22:32 10° 213° (SSW) 1,660 6.3 -10.0°
Sets 19:24:38 0° 208° (SSW) 2,535 7.2 -10.4°
